Home > Weather > New Bedford > Past weeks

Flag for U.S.A. Weather for the Past 2 Weeks in New Bedford, Massachusetts, U.S.A.

Now
32 °F

Clear.


Feels Like: 26 °F
Forecast: 29 / 43 °F
Wind: 6 mph from West

Location: New Bedford Regional Airport

Current Time: Feb 6, 2016 at 8:42:52 PM

Latest Report: Feb 6, 2016 at 7:53 PM


Visibility: 10 mi

Pressure: 30.28 "Hg

Humidity: 82%

Dew point: 27 °F

Location of New BedfordLocation

Historic Weather in New Bedford — Graph

°F

New Bedford Temperature Yesterday

Maximum temperature yesterday: 42 °F (at 12:53 AM)
Minimum temperature yesterday: 23 °F (at 11:53 PM)
Average temperature yesterday: 34 °F

High & Low Weather Summary for the Past Weeks

 TemperatureHumidityPressure
High60 °F (Feb 1, 11:53 AM)100% (Jan 23, 4:53 PM)30.41 "Hg (Jan 23, 4:53 PM)
Low18 °F (Jan 25, 6:53 AM)31% (Feb 1, 5:53 PM)29.35 "Hg (Jan 29, 12:53 PM)
Average37 °F75%29.96 "Hg
* Reported Jan 22 6:53 PM — Feb 6 6:53 PM, New Bedford, Weather by CustomWeather, © 2016

Note: Actual official high and low records may vary slightly from our data, if they occured in-between our weather recording intervals... More about our weather records

Advertising

New Bedford Weather History for the Previous 24 Hours

 ConditionsComfort  
Time TempWeatherWind HumidityBarometerVisibility
6:53 PM
Sat, Feb 6
33 °FClear.7 mph78%30.29 "Hg10 mi
5:53 PM32 °FClear.7 mph79%30.29 "Hg10 mi
4:53 PM32 °FSunny.6 mph82%30.29 "Hg10 mi
3:53 PM34 °FSunny.10 mph76%30.30 "Hg10 mi
2:53 PM34 °FSunny.10 mph67%30.31 "Hg10 mi
1:53 PM34 °FSunny.10 mph64%30.32 "Hg10 mi
12:53 PM33 °FSunny.13 mph58%30.34 "Hg10 mi
11:53 AM33 °FSunny.7 mph66%30.37 "Hg10 mi
10:53 AM31 °FChilly.5 mph76%30.39 "Hg10 mi
4:53 AM21 °FClear.3 mph85%30.33 "Hg10 mi
3:53 AM22 °FClear.5 mph85%30.31 "Hg10 mi
2:53 AM22 °FClear.3 mph85%30.30 "Hg10 mi
1:53 AM22 °FClear.3 mph85%30.28 "Hg10 mi
12:53 AM23 °FClear.3 mph85%30.25 "Hg10 mi
11:53 PM
Fri, Feb 5
23 °FClear.3 mph88%30.25 "Hg10 mi
10:53 PM24 °FClear.5 mph84%30.22 "Hg10 mi
9:53 PM26 °FClear.8 mph81%30.19 "Hg10 mi
8:53 PM27 °FClear.7 mph81%30.17 "Hg10 mi
Weather by CustomWeather, © 2016

See weather overviewHow to use our weather pages